• Em Portugal
  • Lista de países
  • Para 7 dias
  • Temperatura da água
  • Mapas de satélite
  • Mapa do tempo
  • Widgets de tempo
  • user-avatar
    Iniciar Sessão

    Previsão horária em Bagdad

    Hoje, 22 Janeiro, Segunda-feira

    Tempo Temperatura Precipitação Vento Pressão Humidade
    00:00 +12°C° 0 mm 1 m/s 762 mmHg 43%
    01:00 +12°C° 0 mm 1 m/s 762 mmHg 44%
    02:00 +11°C° 0 mm 1 m/s 761 mmHg 46%
    03:00 +11°C° 0 mm 1 m/s 761 mmHg 47%
    04:00 +11°C° 0 mm 1 m/s 761 mmHg 48%
    05:00 +10°C° 0 mm 1 m/s 761 mmHg 49%
    06:00 +10°C° 0 mm 1 m/s 761 mmHg 50%
    07:00 +11°C° 0 mm 1 m/s 761 mmHg 47%
    08:00 +12°C° 0 mm 2 m/s 760 mmHg 44%
    09:00 +13°C° 0 mm 2 m/s 760 mmHg 41%
    10:00 +14°C° 0 mm 3 m/s 760 mmHg 36%
    11:00 +15°C° 0 mm 4 m/s 759 mmHg 32%
    12:00 +17°C° 0 mm 5 m/s 759 mmHg 27%
    13:00 +17°C° 0 mm 5 m/s 758 mmHg 25%
    14:00 +19°C° 0 mm 6 m/s 758 mmHg 23%
    15:00 +18°C° 0 mm 7 m/s 757 mmHg 22%
    16:00 +17°C° 0 mm 6 m/s 757 mmHg 22%
    17:00 +16°C° 0 mm 5 m/s 757 mmHg 23%
    18:00 +16°C° 0 mm 5 m/s 757 mmHg 23%
    19:00 +15°C° 0 mm 5 m/s 757 mmHg 24%
    20:00 +15°C° 0 mm 5 m/s 757 mmHg 25%
    21:00 +14°C° 0 mm 5 m/s 757 mmHg 25%
    22:00 +14°C° 0 mm 5 m/s 757 mmHg 26%
    23:00 +14°C° 0 mm 6 m/s 756 mmHg 26%

    Amanhã, 23 Janeiro, Terça-feira

    Tempo Temperatura Precipitação Vento Pressão Humidade
    00:00 +14°C° 0 mm 6 m/s 756 mmHg 27%
    01:00 +13°C° 0 mm 6 m/s 756 mmHg 27%
    02:00 +13°C° 0 mm 6 m/s 756 mmHg 28%
    03:00 +13°C° 0 mm 6 m/s 756 mmHg 29%
    04:00 +13°C° 0 mm 6 m/s 756 mmHg 29%
    05:00 +13°C° 0 mm 6 m/s 756 mmHg 30%
    06:00 +13°C° 0 mm 6 m/s 755 mmHg 30%
    07:00 +12°C° 0 mm 7 m/s 755 mmHg 28%
    08:00 +13°C° 0 mm 8 m/s 755 mmHg 27%
    09:00 +15°C° 0 mm 9 m/s 755 mmHg 25%
    10:00 +16°C° 0 mm 9 m/s 755 mmHg 23%
    11:00 +17°C° 0 mm 8 m/s 755 mmHg 21%
    12:00 +20°C° 0 mm 8 m/s 755 mmHg 19%
    13:00 +20°C° 0 mm 8 m/s 754 mmHg 18%
    14:00 +21°C° 0 mm 7 m/s 754 mmHg 18%
    15:00 +22°C° 0 mm 6 m/s 754 mmHg 17%
    16:00 +21°C° 0 mm 5 m/s 754 mmHg 19%
    17:00 +19°C° 0 mm 4 m/s 754 mmHg 21%
    18:00 +18°C° 0 mm 3 m/s 755 mmHg 23%
    19:00 +17°C° 0 mm 2 m/s 755 mmHg 24%
    20:00 +17°C° 0 mm 2 m/s 755 mmHg 26%
    21:00 +16°C° 0 mm 2 m/s 755 mmHg 27%
    22:00 +15°C° 0 mm 2 m/s 756 mmHg 28%
    23:00 +15°C° 0 mm 2 m/s 756 mmHg 29%

    Depois de amanhã, 24 Janeiro, Quarta-feira

    Tempo Temperatura Precipitação Vento Pressão Humidade
    00:00 +15°C° 0 mm 2 m/s 756 mmHg 30%
    01:00 +14°C° 0 mm 2 m/s 756 mmHg 31%
    02:00 +14°C° 0 mm 2 m/s 756 mmHg 32%
    03:00 +14°C° 0 mm 2 m/s 757 mmHg 33%
    04:00 +13°C° 0 mm 2 m/s 757 mmHg 34%
    05:00 +13°C° 0 mm 2 m/s 757 mmHg 36%
    06:00 +13°C° 0 mm 2 m/s 757 mmHg 38%
    07:00 +14°C° 0 mm 2 m/s 758 mmHg 38%
    08:00 +15°C° 0 mm 2 m/s 758 mmHg 39%
    09:00 +16°C° 0 mm 2 m/s 759 mmHg 39%
    10:00 +18°C° 0 mm 1 m/s 759 mmHg 37%
    11:00 +19°C° 0 mm 1 m/s 759 mmHg 35%
    12:00 +21°C° 0 mm 1 m/s 759 mmHg 33%
    13:00 +21°C° 0 mm 1 m/s 759 mmHg 33%
    14:00 +21°C° 0 mm 2 m/s 758 mmHg 32%
    15:00 +21°C° 0 mm 2 m/s 758 mmHg 31%
    16:00 +20°C° 0 mm 2 m/s 758 mmHg 34%
    17:00 +19°C° 0 mm 2 m/s 758 mmHg 36%
    18:00 +18°C° 0 mm 2 m/s 758 mmHg 39%
    19:00 +18°C° 0 mm 2 m/s 758 mmHg 41%
    20:00 +17°C° 0 mm 2 m/s 759 mmHg 44%
    21:00 +16°C° 0 mm 2 m/s 759 mmHg 46%
    22:00 +16°C° 0 mm 2 m/s 759 mmHg 48%
    23:00 +15°C° 0 mm 2 m/s 759 mmHg 51%

    25 Janeiro, Quinta-feira

    Tempo Temperatura Precipitação Vento Pressão Humidade
    00:00 +15°C° 0 mm 1 m/s 759 mmHg 53%
    01:00 +14°C° 0 mm 1 m/s 759 mmHg 55%
    02:00 +14°C° 0 mm 1 m/s 759 mmHg 58%
    03:00 +12°C° 0 mm 0 m/s 758 mmHg 60%
    04:00 +12°C° 0 mm 0 m/s 758 mmHg 60%
    05:00 +13°C° 0 mm 1 m/s 758 mmHg 60%
    06:00 +13°C° 0 mm 1 m/s 758 mmHg 60%
    07:00 +14°C° 0 mm 1 m/s 758 mmHg 55%
    08:00 +15°C° 0 mm 2 m/s 759 mmHg 50%
    09:00 +17°C° 0 mm 2 m/s 759 mmHg 45%
    10:00 +18°C° 0 mm 3 m/s 759 mmHg 40%
    11:00 +20°C° 0 mm 3 m/s 758 mmHg 35%
    12:00 +21°C° 0 mm 3 m/s 758 mmHg 30%
    13:00 +22°C° 0 mm 4 m/s 757 mmHg 28%
    14:00 +23°C° 0 mm 4 m/s 756 mmHg 26%
    15:00 +23°C° 0 mm 4 m/s 756 mmHg 24%
    16:00 +23°C° 0 mm 4 m/s 755 mmHg 25%
    17:00 +22°C° 0 mm 3 m/s 755 mmHg 27%
    18:00 +21°C° 0 mm 3 m/s 755 mmHg 28%
    19:00 +20°C° 0 mm 3 m/s 755 mmHg 29%
    20:00 +20°C° 0 mm 3 m/s 755 mmHg 29%
    21:00 +19°C° 0 mm 3 m/s 755 mmHg 29%
    22:00 +19°C° 0 mm 3 m/s 755 mmHg 29%
    23:00 +18°C° 0 mm 3 m/s 754 mmHg 29%

    26 Janeiro, Sexta-feira

    Tempo Temperatura Precipitação Vento Pressão Humidade
    00:00 +17°C° 0 mm 3 m/s 754 mmHg 29%
    01:00 +17°C° 0 mm 3 m/s 754 mmHg 30%
    02:00 +15°C° 0 mm 4 m/s 754 mmHg 30%
    03:00 +15°C° 0 mm 4 m/s 753 mmHg 31%
    04:00 +15°C° 0 mm 4 m/s 753 mmHg 32%
    05:00 +14°C° 0 mm 4 m/s 753 mmHg 34%
    06:00 +14°C° 0 mm 5 m/s 753 mmHg 36%
    07:00 +14°C° 0 mm 5 m/s 754 mmHg 36%
    08:00 +15°C° 0 mm 5 m/s 754 mmHg 37%
    09:00 +15°C° 0 mm 6 m/s 755 mmHg 38%
    10:00 +16°C° 0 mm 6 m/s 755 mmHg 37%
    11:00 +19°C° 0 mm 6 m/s 755 mmHg 36%
    12:00 +20°C° 0 mm 6 m/s 755 mmHg 35%
    13:00 +21°C° 0 mm 6 m/s 755 mmHg 33%
    14:00 +21°C° 0 mm 6 m/s 755 mmHg 32%
    15:00 +21°C° 0 mm 5 m/s 754 mmHg 31%
    16:00 +20°C° 0 mm 4 m/s 755 mmHg 33%
    17:00 +19°C° 0 mm 4 m/s 755 mmHg 34%
    18:00 +18°C° 0 mm 3 m/s 755 mmHg 36%
    19:00 +18°C° 0 mm 2 m/s 755 mmHg 37%
    20:00 +17°C° 0 mm 2 m/s 756 mmHg 38%
    21:00 +16°C° 0 mm 2 m/s 756 mmHg 39%
    22:00 +16°C° 0 mm 2 m/s 756 mmHg 39%
    23:00 +16°C° 0 mm 2 m/s 756 mmHg 40%

    27 Janeiro, Sábado

    Tempo Temperatura Precipitação Vento Pressão Humidade
    00:00 +15°C° 0 mm 2 m/s 756 mmHg 40%
    01:00 +15°C° 0 mm 2 m/s 755 mmHg 40%
    02:00 +14°C° 0 mm 3 m/s 755 mmHg 41%
    03:00 +14°C° 0 mm 3 m/s 755 mmHg 42%
    04:00 +13°C° 0 mm 3 m/s 755 mmHg 43%
    05:00 +13°C° 0 mm 3 m/s 755 mmHg 44%
    06:00 +13°C° 0 mm 3 m/s 755 mmHg 45%
    07:00 +13°C° 0,2 mm 3 m/s 755 mmHg 51%
    08:00 +12°C° 0,2 mm 4 m/s 756 mmHg 58%
    09:00 +12°C° 0,2 mm 4 m/s 756 mmHg 64%
    10:00 +12°C° 0,3 mm 4 m/s 756 mmHg 64%
    11:00 +12°C° 0,3 mm 5 m/s 756 mmHg 64%
    12:00 +12°C° 0,3 mm 5 m/s 756 mmHg 64%
    13:00 +12°C° 0,2 mm 5 m/s 756 mmHg 60%
    14:00 +13°C° 0,2 mm 5 m/s 756 mmHg 56%
    15:00 +13°C° 0,2 mm 4 m/s 756 mmHg 52%
    16:00 +13°C° 0 mm 4 m/s 756 mmHg 53%
    17:00 +12°C° 0 mm 3 m/s 756 mmHg 53%
    18:00 +13°C° 0 mm 2 m/s 756 mmHg 54%
    19:00 +12°C° 0,1 mm 2 m/s 756 mmHg 56%
    20:00 +12°C° 0,1 mm 2 m/s 756 mmHg 58%
    21:00 +12°C° 0,1 mm 2 m/s 756 mmHg 60%
    22:00 +10°C° 0,1 mm 2 m/s 756 mmHg 62%
    23:00 +10°C° 0,1 mm 2 m/s 756 mmHg 64%
    Mostrar mais